{"data":{"norad_id":52265,"epoch":"2026-05-25T05:05:05.743392Z","epoch_age_seconds":63519,"freshness":"FRESH","line1":"1 52265U 22041E   26145.21187203  .00010069  00000+0  65051-3 0  9996","line2":"2 52265  53.2139 125.5997 0000950  85.7416 274.3684 15.08801655225910","mean_motion":15.08801655,"eccentricity":9.5e-5,"inclination_deg":53.2139,"raan_deg":125.5997,"arg_perigee_deg":85.7416,"mean_anomaly_deg":274.3684,"bstar":0.00065051,"rev_number":22591,"period_min":95.439980147689,"perigee_km":539.20338699949,"apogee_km":540.51780654287,"semimajor_km":6917.9975967712,"source":"CELESTRAK","updated_at":"2026-05-25T13:38:17.080591Z"}}